Location: Unspecified
(0.0000°N, 0.0000°E)
Time: 00:15:04
(UTC+00:00)

Tiangong - Pass Details

Date: 20 January 2022
Orbit: 381 x 387 km, 41.5° (Epoch: 27 January)

Event Time Altitude Azimuth Distance (km) Brightness Sun altitude
Rises 18:42:42 0° 236° (SW) 2,262 6.8 -7.4°
Reaches altitude 10° 18:44:50 10° 242° (WSW) 1,405 5.6 -7.9°
Maximum altitude 18:47:52 44° 316° (NW) 544 2.0 -8.6°
Drops below altitude 10° 18:50:54 10° 30° (NNE) 1,397 3.4 -9.3°
Enters shadow 18:51:14 - 31° (NNE) 1,526 3.6 -9.4°
